Location: ????????
(55.0097°N, 38.5678°E)
Time: 01:39:24
(UTC+00:00)

NOSS 3-1 (C) - Pass Details

Date: 22 December 2025
Orbit: 618 x 1583 km, 63.4° (Epoch: 10 January)

Event Time Altitude Azimuth Distance (km) Brightness Sun altitude
Rises 15:53:38 0° 218° (SW) 2,986 6.8 -23.1°
Reaches altitude 10° 15:55:45 10° 216° (SW) 2,142 5.9 -23.4°
Maximum altitude 16:00:33 70° 134° (SE) 837 3.0 -24.1°
Enters shadow 16:01:05 64° 95° (E) 880 2.9 -24.2°
